TimePST,TemperatureF,Dew PointF,Humidity,Sea Level PressureIn,VisibilityMPH,Wind Direction,Wind SpeedMPH,Gust SpeedMPH,PrecipitationIn,Events,Conditions,WindDirDegrees,DateUTC
12:53 AM,54.0,37.0,53,30.17,10.0,NW,5.8,-,N/A,,Clear,310,2013-12-24 08:53:00
1:53 AM,55.0,36.0,49,30.18,10.0,Calm,Calm,-,N/A,,Clear,0,2013-12-24 09:53:00
2:53 AM,54.0,35.1,49,30.17,10.0,Calm,Calm,-,N/A,,Clear,0,2013-12-24 10:53:00
3:53 AM,53.1,35.1,50,30.16,10.0,NW,4.6,-,N/A,,Clear,310,2013-12-24 11:53:00
4:53 AM,53.1,34.0,48,30.16,10.0,NW,5.8,-,N/A,,Clear,310,2013-12-24 12:53:00
6:53 AM,51.1,34.0,52,30.17,10.0,Calm,Calm,-,N/A,,Clear,0,2013-12-24 14:53:00
7:53 AM,54.0,34.0,47,30.18,10.0,NW,3.5,-,N/A,,Clear,310,2013-12-24 15:53:00
8:53 AM,59.0,35.1,41,30.19,10.0,NNW,3.5,-,N/A,,Clear,330,2013-12-24 16:53:00
9:53 AM,66.0,36.0,33,30.19,10.0,Calm,Calm,-,N/A,,Clear,0,2013-12-24 17:53:00
10:53 AM,71.1,35.1,27,30.18,10.0,Calm,Calm,-,N/A,,Clear,0,2013-12-24 18:53:00
11:53 AM,75.0,30.9,20,30.15,10.0,Calm,Calm,-,N/A,,Clear,0,2013-12-24 19:53:00
12:53 PM,75.0,37.9,26,30.11,10.0,Calm,Calm,-,N/A,,Clear,0,2013-12-24 20:53:00
1:53 PM,75.0,39.9,28,30.09,10.0,South,4.6,-,N/A,,Clear,170,2013-12-24 21:53:00
2:53 PM,77.0,41.0,28,30.08,10.0,Calm,Calm,-,N/A,,Clear,0,2013-12-24 22:53:00
3:53 PM,73.9,45.0,35,30.08,10.0,SSE,5.8,-,N/A,,Clear,160,2013-12-24 23:53:00
4:53 PM,68.0,46.9,47,30.08,10.0,Calm,Calm,-,N/A,,Clear,0,2013-12-25 00:53:00
5:53 PM,64.0,41.0,43,30.10,10.0,NW,6.9,-,N/A,,Clear,310,2013-12-25 01:53:00
6:53 PM,61.0,43.0,52,30.12,10.0,NW,5.8,-,N/A,,Clear,320,2013-12-25 02:53:00
7:53 PM,61.0,39.9,46,30.13,10.0,Calm,Calm,-,N/A,,Clear,0,2013-12-25 03:53:00
8:53 PM,57.9,42.1,56,30.13,10.0,Calm,Calm,-,N/A,,Clear,0,2013-12-25 04:53:00
9:53 PM,55.0,42.1,62,30.14,10.0,Calm,Calm,-,N/A,,Clear,0,2013-12-25 05:53:00
10:53 PM,57.0,41.0,55,30.15,10.0,West,3.5,-,N/A,,Clear,260,2013-12-25 06:53:00
11:53 PM,54.0,41.0,62,30.16,9.0,NNW,3.5,-,N/A,,Clear,340,2013-12-25 07:53:00